Overview Statistics Trail Chart Weather Telemetry Raw packets
 

This is the latest recevied weather packets stored in our database for station/object LU3HGB-WX. If no packets are shown the sender has not sent any weather packets the latest 10 day(s).

<< 102 103 104 105 106 107 108 >>
Time Temp. Humidity Pressure Rain* Wind** Luminosity Snow
1787920360 14.44° C 53% 1011 hPa 0 mm - 152 W/m² -
1787920059 14.44° C 52% 1011 hPa 0 mm - 191 W/m² -
1787919760 13.89° C 54% 1010 hPa 0 mm - 347 W/m² -
1787919460 13.33° C 56% 1010 hPa 0 mm - 326 W/m² -
1787919160 12.22° C 62% 1011 hPa 0 mm - 238 W/m² -
1787918860 11.67° C 66% 1011 hPa 0 mm - 184 W/m² -
1787918561 11.67° C 68% 1011 hPa 0 mm - 136 W/m² -
1787918259 11.11° C 67% 1011 hPa 0 mm - 57 W/m² -
1787917960 11.11° C 68% 1010 hPa 0 mm - 60 W/m² -
1787917660 10.56° C 71% 1010 hPa 0 mm - 102 W/m² -
1787917360 10.56° C 75% 1010 hPa 0 mm - 84 W/m² -
1787917060 10° C 74% 1010 hPa 0 mm - 84 W/m² -
1787916761 10° C 74% 1010 hPa 0 mm - 65 W/m² -
1787916459 10° C 72% 1010 hPa 0 mm - 44 W/m² -
1787916160 10° C 72% 1010 hPa 0 mm - 31 W/m² -
1787915859 9.44° C 73% 1010 hPa 0 mm - 23 W/m² -
1787915560 9.44° C 74% 1010 hPa 0 mm - 25 W/m² -
1787915260 8.89° C 78% 1010 hPa 0 mm - 27 W/m² -
1787914961 8.89° C 76% 1010 hPa 0 mm - 30 W/m² -
1787914659 8.89° C 75% 1010 hPa 0 mm - 22 W/m² -
1787914360 9.44° C 74% 1010 hPa 0 mm - 14 W/m² -
1787914062 9.44° C 73% 1010 hPa 0 mm - 8 W/m² -
1787913759 9.44° C 73% 1010 hPa 0 mm - 5 W/m² -
1787913460 10° C 73% 1010 hPa 0 mm - 2 W/m² -
1787913162 10° C 74% 1009 hPa 0 mm - 1 W/m² -

* Rain latest hour (hover to see other rain measurements)
** Current wind speed in m/s (hover to see current wind gust speed)